This demonstration page uses our WeatherBlox Daily Observations layout. Learn more.

Left ArrowRight Arrow

Hourly Observations for August 26, 2022

Temp ( °F °C ) Dew Point ( °F °C ) Humidity (%) Winds ( mph kmh ) Pressure ( in mb ) Visibility ( mi km ) Precip ( " mm )
12:53 am 00:53 Partly Cloudy 76 24.4 73 22.8 91 91 SSE 7 11 30.02 1017 10 16 0.00 0.00
1:53 am 01:53 Partly Cloudy 76 24.4 71 21.7 85 85 Calm 30.01 1016 10 16 0.00 0.00
2:53 am 02:53 Clear 76 24.4 70 21.1 82 82 Calm 29.99 1016 10 16 0.00 0.00
3:53 am 03:53 Clear 75 23.9 70 21.1 84 84 ENE 5 7 29.98 1015 10 16 0.00 0.00
4:53 am 04:53 Clear 74 23.3 69 20.6 85 85 NE 5 7 29.99 1016 10 16 0.00 0.00
5:53 am 05:53 Mostly Clear 73 22.8 69 20.6 87 87 ENE 3 6 30.00 1016 10 16 0.00 0.00
6:53 am 06:53 Mostly Sunny 74 23.3 68 20 82 82 E 3 6 30.01 1016 10 16 0.00 0.00
7:53 am 07:53 Sunny 80 26.7 68 20 67 67 Calm 30.02 1017 10 16 0.00 0.00
8:53 am 08:53 Sunny 81 27.2 69 20.6 67 67 W 6 9 30.03 1017 10 16 0.00 0.00
9:53 am 09:53 Mostly Sunny 83 28.3 70 21.1 65 65 W 8 13 30.03 1017 10 16 0.00 0.00
10:53 am 10:53 Mostly Sunny 83 28.3 69 20.6 63 63 WSW 12 19 30.02 1017 10 16 0.00 0.00
11:53 am 11:53 Partly Cloudy 84 28.9 70 21.1 63 63 SW 10 17 30.02 1017 10 16 0.00 0.00
12:53 pm 12:53 Sunny 85 29.4 70 21.1 61 61 SW 12 19 30.00 1016 10 16 0.00 0.00
1:53 pm 13:53 Partly Cloudy 85 29.4 69 20.6 59 59 SSW 12 19 29.98 1015 10 16 0.00 0.00
2:53 pm 14:53 Partly Cloudy 85 29.4 69 20.6 59 59 S 13 20 29.97 1015 10 16 0.00 0.00
3:53 pm 15:53 Mostly Cloudy 86 30 70 21.1 59 59 S 13 20 29.96 1015 10 16 0.00 0.00
4:53 pm 16:53 Mostly Cloudy 85 29.4 68 20 57 57 S 13 20 29.96 1015 10 16 0.00 0.00
5:53 pm 17:53 Mostly Cloudy 84 28.9 68 20 59 59 S 13 20 29.97 1015 10 16 0.00 0.00
6:53 pm 18:53 Mostly Cloudy 83 28.3 68 20 61 61 S 9 15 29.99 1016 10 16 0.00 0.00
7:53 pm 19:53 Mostly Clear 82 27.8 65 18.3 56 56 SSE 6 9 30.01 1016 10 16 0.00 0.00
8:53 pm 20:53 Mostly Cloudy 82 27.8 66 18.9 58 58 S 3 6 30.03 1017 10 16 0.00 0.00
9:53 pm 21:53 Mostly Cloudy 80 26.7 74 23.3 82 82 WSW 7 11 30.04 1017 10 16 0.00 0.00
10:53 pm 22:53 Cloudy 80 26.7 74 23.3 82 82 WSW 5 7 30.04 1017 10 16 0.01 0.13
11:53 pm 23:53 Cloudy with Light Rain 79 26.1 74 23.3 85 85 WNW 8 13 30.03 1017 10 16 0.01 0.13

Powered by AerisWeather